Hourly Data Report for October 05, 2017

All times are specified in Local Standard Time (LST). Add 1 hour to adjust for Daylight Saving Time where and when it is observed.

WINDSOR A
ONTARIO

42°16'34.000" N
82°57'19.000" W
189.60 m
6139527
71538
YQG

Download Data

Hourly Data (October 2017)
Hourly Data Report for October 5, 2017
Temp Definition
°C
Dew Point Temp Definition
°C
Rel Hum Definition
%
Wind Dir Definition
10's deg

Wind Spd Definition
km/h
Visibility Definition
km
Stn Press Definition
kPa
Hmdx Definition


Wind Chill Definition


Weather Definition


TIME
00:00 Legend Double Dagger 19.0 11.5 61 33 17 19.3 100.00     LegendNANA
01:00 Legend Double Dagger 17.0 8.0 55 33 14 24.1 100.02     Mainly Clear
02:00 Legend Double Dagger 15.1 8.3 64 33 7 24.1 100.00     LegendNANA
03:00 Legend Double Dagger 15.0 8.5 65 34 6 24.1 99.99     LegendNANA
04:00 Legend Double Dagger 15.1 8.9 66 32 6 16.1 100.01     Cloudy
05:00 Legend Double Dagger 12.6 8.1 74 29 8 24.1 100.03     LegendNANA
06:00 Legend Double Dagger 10.8 8.1 83 29 8 24.1 100.02     LegendNANA
07:00 Legend Double Dagger 11.4 7.9 79 27 4 24.1 100.02     Mainly Clear
08:00 Legend Double Dagger 14.6 9.4 71 25 6 24.1 100.02     LegendNANA
09:00 Legend Double Dagger 16.1 9.2 63 24 8 24.1 100.04     LegendNANA
10:00 Legend Double Dagger 17.4 8.8 57 22 10 24.1 100.03     Mainly Clear
11:00 Legend Double Dagger 19.5 8.9 50 24 13 24.1 99.96     LegendNANA
12:00 Legend Double Dagger 20.9 9.0 46 21 21 24.1 99.87     LegendNANA
13:00 Legend Double Dagger 21.8 9.2 44 24 18 24.1 99.80     Clear
14:00 Legend Double Dagger 22.4 10.2 46 21 22 24.1 99.76     LegendNANA
15:00 Legend Double Dagger 22.7 11.0 47 22 18 24.1 99.68     LegendNANA
16:00 Legend Double Dagger 22.8 11.2 47 21 18 24.1 99.60 25   Mainly Clear
17:00 Legend Double Dagger 21.9 11.4 51 20 16 24.1 99.58     LegendNANA
18:00 Legend Double Dagger 19.7 11.7 60 19 12 24.1 99.58     LegendNANA
19:00 Legend Double Dagger 18.4 12.2 67 20 12 24.1 99.59     Mostly Cloudy
20:00 Legend Double Dagger 18.9 12.7 67 19 8 24.1 99.59     LegendNANA
21:00 Legend Double Dagger 18.5 14.2 76 21 5 19.3 99.61     Rain
22:00 Legend Double Dagger 17.4 13.1 76 5 10 19.3 99.66     Cloudy
23:00 Legend Double Dagger 16.0 13.7 86 1 5 24.1 99.63     LegendNANA

Notes on Data Quality.

Legend

  • E = Estimated
  • M = Missing
  • NA = Not Available
  • ‡ = Partner data that is not subject to review by the National Climate Archives
Date modified: